GW6594 Weather Reports


time (UTC)temp
C
wind
direction
speed
KPH
gust
KPH
rain 1hr
cm
rain 24hr
cm
rain mn
cm
humidity
%
barometer
mb
20260508090116 4 269 9.7 17.7 0.00 0.00 0.00 68 1005.0
20260508084600 4 298 12.9 20.9 0.00 0.00 0.00 68 1004.9
20260508083104 4 293 11.3 19.3 0.00 0.00 0.00 68 1004.9
20260508081610 4 258 9.7 16.1 0.00 0.00 0.00 67 1004.9
20260508074600 5 284 11.3 19.3 0.00 0.03 0.00 66 1004.7
20260508073100 5 267 12.9 20.9 0.00 0.03 0.00 65 1004.7
20260508071603 5 294 9.7 19.3 0.00 0.03 0.00 65 1004.6
20260508070101 5 276 11.3 20.9 0.00 0.03 0.00 65 1004.6
20260508064559 5 275 11.3 20.9 0.00 0.05 0.00 65 1004.6
20260508063107 5 281 11.3 19.3 0.00 0.05 0.00 64 1004.8
20260508061559 5 279 9.7 22.5 0.00 0.05 0.00 64 1004.8
20260508060059 5 300 11.3 20.9 0.00 0.05 0.00 64 1004.9
20260508054600 4 267 8.0 16.1 0.00 0.48 0.00 64 1005.1
20260508053108 4 284 8.0 14.5 0.00 0.48 0.00 63 1005.1
20260508051600 5 296 4.8 8.0 0.00 0.48 0.00 62 1005.3
20260508050103 5 306 6.4 12.9 0.00 0.48 0.00 61 1005.3
20260508044602 5 279 8.0 16.1 0.00 0.51 0.00 59 1005.4
20260508043105 6 296 8.0 16.1 0.00 0.51 0.00 58 1005.4
20260508041605 6 309 8.0 17.7 0.00 0.51 0.00 58 1005.5
20260508040104 6 304 9.7 17.7 0.00 0.51 0.00 58 1005.4
20260508034612 6 286 11.3 17.7 0.00 0.51 0.51 57 1005.6
20260508033102 6 300 9.7 19.3 0.00 0.51 0.51 56 1005.7
20260508031559 7 286 9.7 22.5 0.00 0.51 0.51 55 1005.6
20260508024602 7 295 12.9 22.5 0.00 0.61 0.51 55 1005.6
20260508023100 7 304 16.1 29.0 0.00 0.61 0.51 54 1005.4
20260508021602 7 308 16.1 25.7 0.00 0.61 0.51 53 1005.5
20260508020105 8 289 16.1 27.4 0.00 0.61 0.51 53 1005.4
20260508014559 8 331 17.7 30.6 0.00 1.02 0.51 53 1005.6
20260508013102 8 288 17.7 27.4 0.00 1.02 0.51 53 1005.6
20260508011604 8 284 17.7 30.6 0.00 1.02 0.51 53 1005.6
20260508010058 9 306 19.3 30.6 0.00 1.02 0.51 53 1005.4
20260508004558 10 325 16.1 29.0 0.00 1.45 0.51 53 1005.3
20260508003059 10 339 17.7 32.2 0.00 1.45 0.51 53 1005.0
20260508001624 10 291 16.1 30.6 0.00 1.45 0.51 57 1004.6
20260508000058 10 314 14.5 20.9 0.00 1.45 0.51 68 1004.3
20260507234558 10 261 11.3 19.3 0.00 1.73 0.51 71 1004.0
20260507233057 10 228 6.4 11.3 0.00 1.73 0.51 73 1003.7
20260507231559 10 232 6.4 14.5 0.00 1.73 0.51 72 1003.5
20260507230058 10 238 8.0 14.5 0.00 1.73 0.51 72 1003.3
20260507224601 11 215 8.0 12.9 0.00 1.80 0.51 72 1003.0
20260507223058 11 211 8.0 14.5 0.00 1.80 0.51 72 1002.7
20260507221559 10 213 8.0 12.9 0.00 1.80 0.51 72 1002.7
20260507220059 10 222 8.0 20.9 0.00 1.80 0.51 70 1002.8
20260507214604 11 192 11.3 24.1 0.00 1.93 0.51 69 1002.9
20260507213100 11 244 12.9 25.7 0.00 1.93 0.51 66 1002.9
20260507211600 11 188 14.5 29.0 0.00 1.93 0.51 65 1002.9
20260507204601 12 213 16.1 32.2 0.00 1.96 0.51 64 1002.7
20260507203101 13 204 17.7 37.0 0.00 1.96 0.51 63 1002.6
20260507201601 13 198 16.1 35.4 0.00 1.96 0.51 62 1002.6
20260507200110 13 184 17.7 33.8 0.00 1.96 0.51 61 1002.8
20260507194601 15 171 24.1 37.0 0.00 1.96 0.51 60 1002.8
20260507193100 15 198 16.1 30.6 0.00 1.96 0.51 60 1002.9
20260507191600 15 216 17.7 29.0 0.00 1.96 0.51 59 1002.9
20260507190059 15 200 19.3 32.2 0.00 1.96 0.51 60 1002.9
20260507184628 16 205 17.7 29.0 0.00 1.96 0.51 61 1003.1
20260507183059 15 217 19.3 29.0 0.00 1.96 0.51 58 1003.1
20260507181605 16 200 19.3 30.6 0.00 1.96 0.51 59 1003.2
20260507180059 16 207 17.7 27.4 0.00 1.96 0.51 58 1003.4
20260507174609 16 229 19.3 29.0 0.00 1.96 0.51 54 1003.5
20260507173058 15 265 17.7 27.4 0.00 1.96 0.51 56 1003.3
20260507171603 15 217 17.7 27.4 0.00 1.96 0.51 58 1003.3
20260507170059 15 0 4.8 16.1 0.00 1.96 0.51 55 1003.3
20260507164557 14 195 4.8 22.5 0.00 1.96 0.51 59 1003.6
20260507163059 15 290 3.2 22.5 0.00 1.96 0.51 55 1003.7
20260507161558 15 300 6.4 20.9 0.00 1.96 0.51 54 1003.8
20260507160058 14 294 3.2 20.9 0.00 1.96 0.51 62 1003.9
20260507154604 13 49 4.8 11.3 0.00 1.96 0.51 58 1004.1
20260507153102 13 311 8.0 16.1 0.00 1.96 0.51 61 1004.3
20260507151557 13 298 8.0 17.7 0.00 1.96 0.51 64 1004.6
20260507150059 13 228 6.4 14.5 0.00 1.96 0.51 68 1004.6
20260507144600 12 341 8.0 20.9 0.00 1.96 0.51 67 1004.7
20260507143058 12 296 6.4 17.7 0.00 1.96 0.51 71 1004.9
20260507141557 12 336 9.7 20.9 0.00 1.96 0.51 68 1004.9
20260507140104 11 295 8.0 17.7 0.00 1.96 0.51 74 1005.0
20260507134600 11 311 12.9 19.3 0.00 1.96 0.51 75 1004.9
20260507133106 11 307 12.9 20.9 0.00 1.96 0.51 79 1005.5
20260507131603 10 302 9.7 25.7 0.00 1.96 0.51 80 1005.6
20260507130109 10 266 8.0 22.5 0.00 1.96 0.51 84 1005.2
20260507124605 8 296 9.7 24.1 0.00 1.96 0.51 86 1005.3
20260507123059 8 280 12.9 20.9 0.00 1.96 0.51 89 1004.9
20260507121607 7 296 14.5 20.9 0.00 1.96 0.51 90 1004.9
20260507120105 7 277 11.3 20.9 0.00 1.96 0.51 92 1005.2
20260507114614 7 280 4.8 12.9 0.00 1.96 0.51 93 1005.9
20260507113101 7 325 4.8 11.3 0.00 1.96 0.51 93 1005.6
20260507111604 6 273 4.8 12.9 0.00 1.96 0.51 93 1005.7
20260507110109 6 294 6.4 11.3 0.00 1.96 0.51 93 1005.7
20260507104601 6 297 6.4 17.7 0.00 1.96 0.51 93 1005.8
20260507103101 6 312 9.7 19.3 0.00 1.96 0.51 93 1004.7
20260507101605 6 285 9.7 19.3 0.00 1.96 0.51 93 1005.0
20260507100103 6 302 11.3 24.1 0.00 1.96 0.51 94 1004.4
20260507094558 6 275 12.9 24.1 0.00 1.96 0.51 94 1004.6
20260507093059 6 318 12.9 24.1 0.00 1.96 0.51 94 1004.3
20260507091600 6 301 11.3 19.3 0.00 1.96 0.51 94 1004.9